GFSSW_850_spd_159.txt.gz
Wind_Speed
28 26 24 22 21 17 12 8 7 7 9 11 12 14 16 10 6 3 5 6 8 10 1 4 1 3 6 11 16 20 6 12 11 11 12 25 14 36 30 24 30 15 6 9 13
29 27 26 26 23 20 17 13 10 7 7 7 8 10 13 14 10 6 2 8 8 5 5 2 8 6 15 11 10 7 4 10 7 8 12 19 21 20 23 25 25 26 9 10 5
31 29 28 27 26 22 19 15 12 11 10 9 8 10 12 16 4 4 3 10 8 7 2 6 5 7 10 14 21 16 13 13 19 28 31 24 25 29 18 20 20 21 30 15 22
33 31 29 27 25 23 21 17 15 13 13 12 11 11 14 10 4 7 4 8 4 3 7 7 9 13 5 7 17 12 22 24 26 31 29 18 28 21 24 28 33 32 30 28 22
36 34 29 26 23 21 19 17 14 14 14 15 14 12 13 8 8 1 8 4 5 5 5 8 9 14 6 9 17 7 7 20 23 23 21 23 18 21 30 36 39 36 32 32 28
39 37 31 26 21 18 16 14 14 14 14 14 12 11 8 5 2 4 9 8 7 6 11 11 14 16 8 10 7 17 23 22 28 27 28 14 14 22 25 33 34 37 35 33 33
41 39 31 27 20 15 13 12 11 14 14 12 12 11 8 13 4 10 7 8 6 7 9 10 13 13 17 9 14 20 14 16 17 18 13 24 19 18 29 33 41 34 32 32 34
44 40 33 25 17 15 13 9 10 13 13 9 6 9 7 0 5 8 8 14 9 12 11 11 12 10 14 17 20 12 10 8 11 15 25 19 22 17 33 36 35 42 40 31 31
45 41 34 22 15 14 14 13 14 13 6 9 4 5 9 6 6 7 4 8 13 15 15 14 17 12 13 8 8 5 12 14 18 14 15 14 24 21 34 37 34 36 37 41 38
46 42 33 19 16 13 17 16 25 5 3 8 2 5 7 11 5 7 8 13 12 13 13 16 23 5 5 5 10 10 8 12 17 17 19 19 20 11 22 17 14 24 16 27 34
47 41 28 16 14 16 16 18 22 4 10 17 20 21 27 19 15 16 6 13 13 15 7 20 6 7 11 13 14 18 19 17 15 15 22 22 22 17 16 20 15 22 23 21 24
47 41 22 16 10 11 13 16 15 15 12 22 23 21 14 7 10 11 9 15 13 7 10 7 10 14 15 13 14 17 20 18 15 13 16 20 25 17 10 17 12 18 27 23 28
48 40 18 18 6 11 13 19 16 13 6 14 5 3 3 3 7 12 13 14 6 6 11 8 13 18 19 17 16 18 13 12 15 9 15 14 19 17 14 21 29 31 27 21 34
47 36 19 20 6 12 17 21 16 18 1 6 4 3 8 6 8 17 16 9 2 9 9 12 17 16 17 15 13 19 14 14 10 6 8 7 13 20 16 18 20 27 29 33 37
46 30 21 17 12 18 28 22 12 7 4 4 11 5 29 16 25 23 23 7 8 13 11 13 16 18 17 17 17 19 11 14 4 6 7 5 1 17 12 20 20 19 25 33 40
45 23 18 21 16 26 26 12 10 2 4 7 14 19 15 15 10 11 22 7 17 3 10 15 19 12 18 20 20 19 6 6 6 4 9 13 7 19 8 14 7 14 27 27 21
42 14 14 25 22 27 20 19 2 5 13 14 15 19 15 17 20 18 14 11 7 11 9 12 12 17 10 14 10 8 4 5 4 3 10 9 11 15 17 13 14 12 19 29 29
35 9 9 24 22 24 27 2 5 16 13 15 14 17 12 18 13 13 12 8 9 16 8 5 8 10 19 13 12 15 3 4 5 4 13 12 12 9 10 7 10 7 17 28 30
25 8 7 21 21 20 21 6 4 7 12 13 14 9 11 17 14 14 14 8 5 7 5 6 7 21 21 19 14 14 11 8 9 14 15 11 18 14 6 3 2 11 16 24 32
21 10 1 26 23 19 4 5 5 9 9 9 8 5 15 13 11 13 9 10 7 11 12 5 12 10 16 19 12 10 11 5 4 4 14 8 15 8 4 3 6 7 9 19 20
18 9 9 28 10 13 4 4 5 10 8 4 10 11 11 11 10 10 6 12 10 10 9 10 6 10 11 4 14 15 11 8 6 4 5 9 6 5 2 3 2 7 15 22 18
13 5 15 20 9 7 4 9 11 14 6 5 8 8 9 9 6 7 6 10 14 13 10 5 4 8 18 22 20 13 6 6 4 3 5 4 10 9 12 4 7 8 18 25 20
22 6 16 17 4 5 7 10 14 12 7 6 5 10 5 3 5 6 11 12 16 7 3 2 4 7 8 4 1 3 10 5 9 9 14 10 8 10 16 11 11 12 19 25 30
11 4 11 12 24 9 8 11 8 10 10 17 13 14 4 5 5 9 19 9 12 17 16 19 3 7 11 17 15 23 22 20 15 8 13 16 24 18 14 17 11 19 22 24 30
8 6 8 4 11 19 15 12 12 10 9 13 12 8 9 5 14 15 15 19 15 28 6 5 6 10 18 22 22 27 27 23 18 12 10 15 19 21 13 13 8 19 20 24 27
9 8 10 22 16 15 9 10 12 10 9 7 10 16 7 7 9 19 19 17 13 10 6 5 4 6 15 21 24 22 17 7 6 6 9 13 19 9 21 26 14 17 21 22 29
13 13 8 9 9 8 7 14 16 17 6 21 14 7 8 10 26 34 34 34 19 11 10 3 2 4 11 12 20 2 7 8 10 11 9 13 16 16 20 14 17 24 25 31 28

GFSSW_850_spd_162.txt.gz
Wind_Speed
29 28 25 22 18 16 13 8 6 7 8 10 13 14 13 10 6 2 5 7 6 5 1 2 3 3 4 5 10 6 1 3 4 2 5 19 9 28 22 18 27 19 19 24 16
33 32 28 24 20 16 15 13 10 7 6 6 7 11 15 16 10 1 5 11 9 7 2 2 3 4 5 3 4 4 3 6 5 4 7 16 17 29 21 22 18 25 25 24 13
35 34 30 26 21 18 14 11 9 7 7 7 7 8 12 12 4 3 2 10 9 9 6 3 3 3 4 8 7 4 6 6 15 28 29 20 25 32 20 17 13 18 28 26 26
37 34 28 26 24 21 17 12 9 8 8 8 8 7 9 5 2 3 5 7 5 1 5 6 6 2 2 3 7 4 8 14 18 27 19 9 22 18 23 23 24 24 28 31 25
38 34 28 24 20 18 18 17 15 12 11 11 8 6 6 3 1 5 9 6 8 9 7 12 14 9 2 4 9 4 3 16 18 18 19 19 9 15 29 31 30 27 23 26 30
40 34 29 22 16 15 15 14 13 15 15 13 10 7 4 2 7 5 8 8 4 4 5 8 8 12 4 6 3 11 16 18 20 24 18 7 13 15 24 33 38 32 29 30 31
43 37 30 20 15 14 13 12 11 14 13 12 9 8 6 2 5 4 6 8 10 8 5 8 6 9 10 8 10 22 9 13 13 15 10 24 11 8 27 29 33 42 39 30 36
44 38 28 19 16 13 14 12 14 13 9 10 9 9 2 6 4 3 4 5 10 8 8 8 11 14 7 7 9 7 4 4 7 5 13 7 15 18 33 33 32 39 44 42 36
45 38 24 18 17 13 16 12 17 5 6 9 4 6 1 3 6 7 10 8 12 13 13 11 11 9 8 2 4 3 5 7 11 6 7 5 13 8 24 28 25 31 36 47 40
46 39 20 15 14 12 16 11 13 7 13 5 4 4 1 13 16 9 10 4 9 11 14 11 7 2 4 3 7 9 5 7 10 10 5 13 18 12 18 23 24 29 33 31 39
46 39 18 17 10 14 19 13 21 5 25 7 11 10 14 6 12 7 8 6 9 7 5 15 2 8 13 10 16 12 16 17 11 8 9 13 15 13 20 21 20 22 23 22 26
45 36 21 19 7 12 16 23 18 10 10 9 9 16 14 11 12 11 7 8 8 6 4 4 6 10 9 11 12 10 11 13 15 8 5 5 11 16 16 18 23 19 26 31 31
44 30 24 14 8 13 18 19 17 15 2 11 5 2 12 6 6 11 13 20 8 4 7 6 9 9 12 15 16 16 9 10 12 8 5 4 13 17 16 10 21 27 31 34 35
43 24 25 18 4 18 19 20 12 12 4 4 7 8 22 16 6 13 27 14 5 8 6 6 9 10 15 14 15 18 14 16 18 8 11 4 13 18 16 16 12 19 28 31 34
41 17 21 21 15 19 22 16 1 4 5 6 5 9 25 12 14 11 25 14 4 7 2 7 6 8 10 10 8 15 13 17 22 7 4 4 3 13 5 11 16 16 23 25 22
36 12 27 21 21 24 25 19 2 5 2 8 9 10 12 14 14 19 23 16 10 3 4 5 12 5 5 11 10 12 9 10 2 3 5 8 8 23 4 7 6 5 11 9 11
29 9 26 28 26 28 28 3 5 6 7 9 8 15 4 14 9 14 11 8 4 7 6 12 5 3 6 9 14 18 11 4 4 2 9 5 7 16 12 12 8 12 5 7 13
23 6 13 27 28 25 20 6 9 4 4 5 8 9 5 13 8 11 11 6 5 5 3 5 8 7 13 11 7 11 6 3 5 4 12 7 7 8 8 13 21 8 1 10 18
24 7 18 29 21 18 10 6 2 2 2 4 8 4 4 12 4 8 7 2 5 6 3 5 7 20 19 17 3 4 6 7 5 11 9 7 10 9 14 13 5 2 9 15 22
25 5 25 23 18 10 7 3 2 4 4 1 2 3 10 11 5 6 4 2 2 6 4 2 14 8 6 16 13 8 6 5 2 4 13 6 8 7 9 3 5 3 5 12 14
20 3 21 17 5 11 3 3 4 9 7 2 1 4 6 4 2 3 5 6 3 2 4 6 6 9 12 5 13 5 5 4 3 4 4 10 6 8 8 2 5 5 14 15 17
17 4 13 19 9 4 3 5 11 8 3 1 1 5 6 2 3 3 6 3 20 8 3 1 4 9 16 26 16 13 4 3 3 5 5 7 9 12 2 7 3 4 15 14 18
18 6 13 16 4 4 8 7 6 13 2 2 3 4 3 5 4 6 9 8 14 6 4 4 4 8 7 5 2 1 5 8 10 9 18 11 10 16 18 19 16 16 19 16 19
10 4 9 8 16 2 4 5 7 12 6 5 6 8 4 4 7 7 13 8 6 15 20 10 4 9 13 19 16 19 22 20 15 6 13 17 23 17 13 15 14 23 24 20 24
8 3 4 4 8 14 3 5 7 5 6 12 4 4 7 4 5 12 7 12 10 29 7 6 6 11 18 22 22 25 25 24 19 19 16 20 21 15 15 13 19 22 18 23 27
7 5 8 14 11 4 3 3 4 11 5 6 7 16 8 4 7 15 16 17 10 6 6 3 4 4 12 19 21 23 14 7 6 9 12 14 23 10 21 29 18 20 23 28 31
13 10 4 7 5 3 3 5 11 13 8 17 6 4 5 5 22 33 32 34 14 7 4 3 2 3 10 11 17 3 4 5 10 11 12 15 19 14 16 17 19 26 29 29 30

GFSSW_850_spd_165.txt.gz
Wind_Speed
33 27 22 18 14 10 8 7 5 5 6 7 8 8 7 8 7 2 9 9 7 5 4 5 7 2 2 3 4 2 3 2 4 2 6 15 7 17 13 18 18 12 9 17 23
34 29 25 21 17 13 10 6 4 4 6 8 9 8 9 10 4 6 8 12 11 8 4 5 4 4 1 1 3 4 3 7 7 4 7 17 15 28 10 20 12 16 25 18 19
36 30 27 23 17 15 13 10 7 5 4 5 8 7 8 7 6 6 6 8 7 9 9 7 6 4 1 1 3 2 4 5 10 20 18 8 20 27 11 5 13 18 26 18 15
36 31 26 22 18 16 15 12 10 8 7 6 6 6 6 3 4 5 5 6 6 7 9 8 11 4 3 4 4 3 7 2 9 17 13 6 14 10 16 8 20 17 21 24 14
37 31 23 18 16 17 16 13 13 13 13 9 6 6 4 4 8 13 11 12 12 11 12 10 9 4 2 4 11 2 3 16 24 18 20 17 10 13 19 24 24 24 21 26 26
40 30 20 16 15 15 15 13 12 15 13 11 8 7 5 6 11 8 8 7 5 7 7 9 6 9 1 2 1 7 9 17 13 21 16 8 8 9 20 24 28 28 25 27 30
41 30 18 15 13 13 14 13 15 12 9 10 9 8 7 7 7 1 3 6 7 6 8 8 9 9 9 7 5 12 7 9 9 9 5 8 6 5 19 28 27 29 31 30 32
42 29 17 15 13 12 14 12 16 4 9 10 8 6 6 5 3 3 2 1 4 6 3 6 7 10 4 7 8 6 3 5 6 6 11 1 8 9 20 17 26 29 33 36 30
41 28 17 14 11 12 15 10 9 8 19 7 5 5 4 4 9 5 6 5 5 7 4 7 9 3 1 3 5 5 6 6 10 4 6 2 16 6 23 21 16 22 30 36 37
40 25 19 16 8 11 19 9 6 3 17 5 7 3 2 6 10 8 9 10 9 8 8 4 1 2 3 4 4 8 7 8 12 11 15 14 17 12 17 15 19 27 28 31 37
41 23 22 14 9 12 20 3 10 2 9 4 6 3 6 9 9 6 8 14 13 9 3 7 2 6 11 7 8 7 9 12 14 15 6 15 15 19 15 15 16 23 29 35 40
41 21 21 9 11 15 18 15 10 6 7 7 5 7 12 9 8 11 3 5 3 6 1 4 6 11 6 7 7 6 9 14 18 10 6 13 23 21 8 9 24 29 32 34 36
38 21 21 6 9 18 19 16 8 7 1 5 8 17 12 11 6 9 18 13 10 4 8 8 8 2 5 8 12 12 9 14 18 16 5 6 21 12 13 16 26 30 33 34 35
32 24 20 17 8 21 19 14 5 5 4 9 9 10 19 13 2 13 21 6 3 6 5 6 5 3 8 6 8 11 11 14 12 10 14 6 16 29 10 7 7 21 28 33 38
28 22 21 22 19 21 21 11 1 2 4 9 6 8 16 18 9 17 21 10 4 5 1 7 3 7 7 7 5 5 10 7 11 12 7 2 2 25 3 15 19 15 19 21 23
27 13 24 24 24 24 25 1 7 5 1 5 4 8 7 14 6 14 19 15 2 4 4 5 10 5 6 3 1 7 5 8 2 1 6 8 11 28 5 7 6 6 7 6 6
26 9 21 23 24 19 18 5 5 6 4 6 5 6 3 7 5 7 11 6 4 6 5 6 4 2 6 5 7 13 5 4 3 1 8 4 7 18 6 12 17 16 14 9 3
24 8 22 21 17 14 15 5 8 3 2 5 4 7 3 7 6 6 8 5 5 2 3 5 6 5 9 4 6 11 5 3 5 4 7 8 8 8 10 15 26 19 11 8 6
22 5 24 19 16 14 4 6 5 4 4 3 7 2 3 5 3 6 5 1 2 2 2 4 5 11 21 13 2 3 3 5 9 15 10 8 11 9 10 13 7 7 3 5 11
24 3 21 21 12 9 6 3 3 4 3 2 1 1 4 6 4 6 4 1 4 5 5 4 10 6 3 11 10 7 3 3 2 5 7 5 7 7 10 8 3 6 9 18 19
18 3 16 22 10 11 4 2 3 5 3 4 3 4 5 4 2 3 5 6 4 3 7 3 6 7 8 5 7 4 2 5 4 4 5 8 2 6 6 8 8 8 20 22 21
14 3 16 24 9 4 2 4 7 5 5 3 3 4 5 4 4 4 6 7 7 1 5 4 4 7 13 22 16 11 10 4 3 5 5 5 16 17 21 6 7 9 16 23 24
16 6 10 17 4 4 7 4 3 4 4 2 3 4 1 2 3 5 7 10 13 6 4 5 4 5 6 4 4 2 4 8 7 4 18 13 9 13 15 15 9 9 18 27 26
9 4 6 7 4 3 4 4 5 9 5 13 9 4 5 4 6 7 10 5 6 10 19 9 5 9 12 18 12 20 19 18 15 7 15 14 25 18 15 13 16 20 26 24 23
8 2 3 4 2 4 4 3 4 4 5 14 4 5 5 3 6 7 7 11 13 21 5 6 6 8 16 21 22 24 27 23 19 14 7 9 17 19 17 13 13 24 27 24 29
5 5 5 10 10 4 2 1 2 4 3 6 4 11 6 6 9 16 15 13 6 5 5 1 4 5 18 19 17 21 21 11 7 9 12 17 23 16 21 24 22 23 27 30 33
6 6 6 6 3 1 3 1 6 10 11 8 8 7 6 9 16 33 31 32 13 6 4 3 2 3 8 9 16 6 2 4 8 12 14 17 18 10 18 19 21 28 30 33 37

GFSSW_850_spd_168.txt.gz
Wind_Speed
29 24 18 14 12 11 8 5 4 4 6 6 6 6 7 9 5 7 12 8 7 6 7 7 7 5 5 4 5 4 4 1 2 4 4 7 7 10 12 13 15 15 14 18 18
32 26 19 15 13 12 10 8 6 5 6 7 8 8 8 9 9 12 10 10 11 10 8 6 8 6 4 3 2 4 4 8 4 3 3 14 9 18 5 11 4 10 15 10 13
34 27 21 16 15 13 11 9 9 8 8 7 8 7 7 7 10 6 8 7 8 13 12 13 8 6 5 3 4 2 4 3 3 9 9 6 14 11 3 2 9 9 17 17 16
35 26 22 18 16 15 13 11 11 10 9 6 5 5 5 6 4 6 9 11 11 12 11 13 15 4 4 3 4 2 4 1 7 14 9 4 12 9 11 7 16 15 18 19 16
34 23 21 20 18 16 15 13 13 13 11 9 8 6 7 11 8 12 12 12 12 12 15 10 14 6 3 1 5 3 1 7 20 16 19 18 11 14 14 22 20 15 16 16 17
35 20 18 18 16 17 16 14 17 11 9 9 8 5 8 10 9 7 7 7 6 6 8 10 6 5 4 2 2 3 6 15 14 20 14 7 9 6 10 15 18 14 13 16 14
34 19 16 15 13 15 16 13 15 8 10 9 9 12 14 8 4 3 3 5 7 4 5 5 6 4 4 4 2 6 5 7 3 2 6 1 4 5 15 23 18 21 22 20 22
34 19 17 12 9 12 17 12 7 9 13 8 11 12 8 7 9 5 3 2 6 9 4 4 6 7 2 3 6 5 4 4 5 7 6 1 7 4 26 15 24 26 23 27 28
33 19 20 12 7 12 17 12 6 11 12 11 11 9 4 6 11 7 6 6 8 8 8 8 9 3 4 4 5 6 6 5 7 3 5 3 15 8 24 27 25 25 29 30 32
30 20 22 13 10 13 16 8 5 13 7 8 13 5 9 9 12 10 6 6 9 11 10 3 5 4 4 5 5 7 7 7 10 5 7 10 20 13 24 21 22 27 29 33 37
25 23 20 13 18 17 14 3 2 3 13 7 5 6 14 15 3 16 7 9 11 10 2 2 4 5 11 6 7 4 5 11 11 10 6 16 18 21 16 17 17 28 31 35 39
22 20 20 9 19 19 18 10 7 3 3 13 21 14 15 17 6 20 14 5 2 6 3 3 5 11 5 6 5 6 8 9 15 8 4 11 24 26 11 11 23 24 27 30 35
21 20 20 9 11 18 18 14 5 3 3 6 10 19 14 14 4 16 19 11 3 3 5 6 8 3 2 4 6 4 7 13 16 13 6 6 19 19 4 15 21 25 27 27 31
23 18 19 19 6 20 19 11 1 2 4 9 8 8 13 11 3 13 22 5 2 3 3 5 4 1 3 4 4 6 5 6 11 7 5 4 10 33 7 6 4 15 24 29 26
28 11 20 18 14 18 22 10 4 2 3 8 5 5 12 14 9 8 19 7 1 5 1 7 3 6 7 7 4 6 6 8 7 14 7 6 5 4 11 11 12 8 15 16 21
24 10 18 18 16 17 16 4 5 5 1 5 6 6 6 6 6 10 11 9 1 3 4 5 8 3 4 3 2 5 5 12 4 1 7 14 12 4 5 6 5 5 13 17 15
19 10 18 15 19 16 14 3 5 6 3 6 3 5 4 5 7 6 6 6 4 6 6 7 5 3 5 5 6 8 5 4 5 2 6 5 5 16 10 7 7 11 25 27 14
19 5 18 14 15 19 12 5 7 3 3 3 3 5 3 6 2 5 5 4 4 3 1 4 7 5 2 3 6 6 5 3 5 4 6 10 7 6 7 12 25 21 21 15 6
22 7 14 17 17 17 1 6 5 4 3 2 6 1 3 2 2 5 3 3 4 3 3 3 6 7 16 12 6 1 4 4 4 9 7 5 6 8 17 17 8 8 8 13 15
23 4 13 23 11 8 6 3 3 3 4 2 0 2 3 4 2 3 3 3 3 7 2 2 9 6 3 4 9 7 3 3 2 5 7 5 6 8 7 5 5 7 9 18 23
16 3 17 19 7 11 4 2 3 5 7 4 4 4 4 3 2 3 4 4 5 5 9 2 5 6 5 5 5 3 3 3 3 4 4 8 5 6 6 4 3 5 12 18 26
14 3 17 17 8 4 2 4 5 4 6 3 1 4 4 2 4 4 5 6 6 3 4 5 3 7 14 21 11 10 10 9 5 5 5 6 18 13 11 2 9 16 22 26 30
15 7 11 13 4 3 6 4 3 4 4 4 4 2 3 2 4 5 5 7 14 5 4 4 3 6 7 4 2 3 4 7 12 13 17 12 10 7 16 17 23 25 30 27 30
9 4 6 11 7 3 5 3 4 7 3 6 4 2 5 4 6 7 10 5 1 11 20 14 5 9 10 15 11 21 22 17 14 7 17 14 25 13 18 21 17 22 28 31 34
9 3 3 4 3 4 2 2 3 5 7 9 4 2 2 4 6 6 4 6 9 11 1 6 5 9 15 21 21 24 25 22 18 19 13 20 18 22 20 12 19 29 33 35 35
6 6 5 11 9 3 2 3 1 2 3 5 4 7 4 6 10 21 10 5 7 4 2 1 4 5 14 18 18 22 19 15 12 5 10 15 26 16 22 24 29 34 35 37 40
5 5 7 5 3 2 3 3 1 9 6 11 8 11 9 11 17 28 31 29 16 6 3 3 3 3 7 5 14 6 2 1 4 8 12 18 24 11 20 24 29 37 38 39 42

GFSSW_850_spd_171.txt.gz
Wind_Speed
24 17 13 12 11 11 8 6 4 3 3 3 4 4 5 6 11 11 14 11 9 9 7 8 5 6 7 5 4 4 2 4 3 3 1 4 8 4 6 8 5 9 12 12 15
24 19 15 14 13 11 10 9 7 5 4 4 3 3 5 13 16 16 13 14 14 11 9 5 7 7 5 3 3 1 2 4 1 4 5 10 6 10 6 7 7 11 10 11 13
26 20 17 15 14 13 12 12 11 9 7 5 4 5 9 17 12 9 9 10 13 13 13 8 7 6 5 4 3 2 1 3 4 5 7 6 9 4 7 8 9 10 17 16 16
28 21 18 16 15 14 10 10 10 10 9 6 5 7 11 6 4 4 12 12 14 12 8 14 7 4 3 3 2 1 2 3 1 9 7 11 11 10 13 13 12 17 18 19 17
26 21 20 17 16 15 12 12 12 7 9 8 7 11 11 14 11 11 11 11 10 10 13 8 11 4 3 1 1 2 1 4 9 12 11 11 14 18 15 18 17 16 14 12 13
25 18 18 17 16 18 19 14 11 7 8 8 9 15 19 19 12 9 6 5 4 4 5 7 4 3 4 0 2 3 6 10 9 10 6 6 7 4 8 8 12 13 10 15 17
25 22 19 14 14 17 20 17 11 13 9 10 15 18 18 10 6 3 2 3 6 5 3 2 3 1 2 2 3 4 6 6 3 5 5 1 11 8 13 17 18 14 19 18 18
24 25 20 13 15 17 17 11 11 14 15 16 16 15 9 11 10 6 3 3 5 6 3 2 3 1 1 1 2 4 2 6 4 9 7 4 14 8 10 17 21 22 23 21 21
26 25 18 16 16 17 12 8 11 13 14 13 12 10 6 8 12 10 5 4 6 4 7 4 1 3 1 5 3 3 9 14 9 10 7 11 21 14 19 25 21 22 24 25 26
25 22 15 18 20 20 9 9 18 11 8 12 10 6 13 11 13 12 8 6 6 10 8 3 3 4 3 8 7 15 15 12 17 13 18 22 28 21 21 21 23 25 26 28 29
21 20 11 17 18 21 9 2 3 8 24 12 11 7 9 13 9 12 10 8 6 6 6 3 7 10 13 8 7 10 12 17 17 16 17 20 28 29 23 23 25 28 30 28 29
17 16 16 6 18 17 14 7 7 5 7 14 17 12 12 18 4 15 15 3 3 7 0 3 10 12 5 5 6 8 14 18 16 12 14 19 33 26 19 23 29 27 24 24 24
20 13 14 12 4 15 15 9 4 3 2 6 10 12 13 12 5 13 19 8 3 4 3 5 9 4 7 7 8 11 15 18 21 16 13 14 27 18 14 21 17 19 23 22 22
23 9 15 14 4 15 12 6 4 4 2 9 7 7 13 5 1 8 20 4 2 5 5 6 4 2 6 10 9 18 12 9 15 14 8 10 14 17 13 6 5 10 15 17 15
19 10 14 14 9 13 14 4 6 3 0 8 4 6 10 11 9 4 15 4 3 6 3 3 8 10 13 10 8 7 8 9 14 18 19 14 10 4 10 18 20 13 11 10 9
17 12 14 13 13 14 11 6 5 1 1 1 3 6 7 10 7 7 7 7 1 3 2 8 10 5 3 5 2 7 9 19 13 7 6 4 12 5 5 9 11 12 12 15 15
15 8 13 13 17 15 9 4 0 2 1 4 4 5 6 8 5 7 8 7 5 5 8 10 3 1 2 6 8 7 13 5 3 3 5 0 9 16 17 20 19 19 24 21 14
18 6 9 18 17 11 2 1 3 0 2 1 3 6 3 9 4 8 8 6 2 2 3 7 3 4 2 6 9 16 5 4 6 5 15 16 9 3 8 11 17 18 13 5 8
18 1 7 18 13 7 2 4 2 2 2 3 4 2 2 4 5 7 6 2 1 1 6 6 6 13 15 10 4 2 5 2 8 13 9 7 10 12 16 12 4 3 5 9 12
16 3 14 17 9 4 5 3 1 2 3 1 2 1 4 6 4 8 4 2 2 7 2 3 10 6 3 6 12 13 3 4 3 5 9 11 20 14 12 11 4 6 12 18 19
11 2 15 15 6 9 4 2 2 3 4 3 2 3 4 3 4 4 4 3 5 3 8 5 4 5 12 5 6 3 4 6 3 5 6 11 10 5 12 14 11 11 19 23 26
9 2 17 12 7 4 2 4 4 3 5 3 1 2 3 4 5 4 5 5 4 2 9 6 5 10 18 22 16 15 14 13 5 7 7 10 22 19 4 9 15 21 28 32 32
9 7 12 9 4 3 4 2 2 4 3 3 3 3 2 1 4 6 6 4 9 5 3 3 4 6 8 3 3 3 6 10 13 11 18 12 13 8 20 26 30 34 32 33 35
7 4 8 13 8 3 4 2 4 5 1 5 3 2 3 4 4 9 12 7 2 10 22 14 6 12 12 16 14 20 22 20 14 6 19 19 33 29 26 27 28 34 39 39 37
8 3 4 4 4 5 1 1 2 5 4 5 1 2 3 4 14 6 6 10 14 16 4 5 6 12 18 22 24 26 26 24 21 21 15 28 27 30 27 23 29 37 39 45 44
5 5 6 6 4 3 1 2 0 3 3 4 3 10 10 8 11 17 16 12 9 3 2 1 5 8 18 22 22 24 23 22 21 17 15 21 29 24 31 32 35 42 41 42 42
9 7 4 3 3 3 2 1 2 13 6 12 10 15 13 12 12 23 28 30 24 14 8 3 3 3 10 10 18 16 3 3 7 11 15 19 28 24 23 28 36 41 40 40 41

GFSSW_850_spd_174.txt.gz
Wind_Speed
18 16 16 14 12 11 9 7 5 3 2 2 2 3 6 13 13 13 9 7 9 8 7 5 3 3 4 3 2 2 6 11 13 9 3 3 6 4 8 14 9 10 11 9 9
17 16 14 13 12 12 11 10 8 5 3 2 2 5 14 16 16 13 13 13 12 9 5 2 4 4 3 3 2 7 8 8 6 4 7 6 9 12 11 13 14 12 10 10 11
17 16 14 14 12 10 9 9 8 6 3 2 4 8 19 15 9 8 10 11 11 12 8 4 4 2 3 3 1 1 8 4 5 3 7 12 13 10 14 16 14 13 14 14 15
18 17 14 12 13 11 8 10 8 6 6 5 6 11 17 5 2 5 12 13 12 10 5 4 2 3 3 4 1 8 2 5 3 9 13 14 16 16 18 21 19 18 19 18 17
22 18 14 11 12 14 9 8 3 4 5 8 12 15 13 10 11 10 10 9 9 7 6 3 4 0 2 0 3 8 3 6 10 14 17 18 19 20 21 19 21 19 19 19 17
25 20 14 12 12 15 12 8 10 4 4 8 14 17 10 15 7 7 8 6 5 5 6 7 6 3 1 2 6 1 9 13 14 13 11 13 17 14 13 11 11 13 15 16 17
25 20 17 15 15 16 13 10 8 8 9 17 19 17 14 9 5 3 3 2 5 4 3 4 3 3 4 3 1 7 12 10 9 6 10 8 17 21 18 16 18 17 19 19 21
24 18 18 18 18 14 10 12 14 15 22 24 17 12 12 8 7 4 0 1 2 1 1 0 1 2 3 2 10 10 7 7 10 10 8 5 17 14 8 13 22 22 25 25 25
21 17 18 20 22 14 11 14 14 16 15 13 7 4 8 8 7 6 3 1 2 1 2 3 2 4 7 7 9 8 7 11 8 11 8 12 19 14 15 22 25 29 29 29 30
17 16 13 18 19 13 12 16 17 12 10 8 6 6 10 4 5 7 4 1 2 5 6 4 5 8 9 6 8 11 14 12 14 8 17 20 24 19 19 21 26 28 29 31 33
13 13 10 11 16 14 3 3 2 5 16 13 9 8 7 9 5 9 10 6 5 7 8 6 9 7 9 7 9 12 15 16 16 13 15 21 26 23 23 24 25 28 29 31 31
15 10 12 10 11 13 8 3 3 5 8 8 10 8 7 11 3 11 12 5 8 10 7 9 9 4 7 10 11 14 16 17 15 10 16 21 31 26 20 14 18 21 25 26 23
16 6 13 11 3 11 8 5 9 7 2 4 5 8 10 7 3 10 13 10 8 9 8 9 11 10 9 11 11 14 16 17 20 18 17 15 21 3 14 11 12 10 12 15 17
15 8 11 11 4 9 4 1 7 6 5 3 2 4 8 2 3 4 11 6 4 7 8 7 2 6 11 14 13 17 10 12 17 14 12 12 13 18 8 8 7 10 12 14 14
14 9 11 8 5 6 8 4 8 3 4 3 3 2 3 10 8 4 11 4 6 8 5 4 9 12 14 10 9 11 10 14 17 18 20 18 10 6 7 6 6 8 9 3 3
13 5 7 9 9 8 5 7 5 5 1 2 1 5 6 9 3 9 7 4 4 6 5 10 9 4 5 7 7 12 15 19 21 14 11 14 12 10 4 7 10 14 12 14 15
16 2 4 11 9 6 1 4 5 3 2 3 4 6 5 8 2 9 8 6 6 6 6 11 4 1 6 10 10 6 13 7 5 8 9 6 10 16 17 9 12 11 14 12 12
16 3 5 12 12 4 5 5 4 3 3 2 4 5 4 10 5 11 8 3 4 6 11 7 2 2 2 11 9 15 8 6 7 9 15 21 9 2 3 11 12 10 10 9 6
10 4 5 13 8 2 5 2 4 2 3 6 5 3 1 3 6 7 7 3 3 4 7 6 5 14 11 5 5 4 7 8 12 18 16 11 15 16 16 7 10 9 8 11 11
7 6 9 12 5 2 3 3 2 1 3 2 3 2 5 8 6 10 4 2 1 2 4 5 9 7 4 12 15 13 7 4 4 5 13 12 19 11 11 14 14 14 17 18 19
6 2 12 8 4 1 1 3 2 3 2 2 2 5 4 7 7 7 3 2 2 4 5 10 5 6 17 6 10 5 8 7 6 8 7 12 8 18 22 16 15 14 24 28 32
6 1 16 6 1 3 3 2 2 1 1 2 4 4 5 4 7 5 5 2 1 7 11 9 6 14 22 21 14 16 17 14 6 10 7 10 20 8 1 12 19 24 26 31 34
6 4 10 8 3 4 2 2 2 2 2 2 3 3 2 5 3 8 8 3 5 11 4 6 4 8 9 5 2 6 6 12 15 10 17 13 14 13 25 26 31 33 33 34 36
5 2 6 12 7 4 4 1 2 2 5 3 6 5 5 7 9 9 10 6 2 10 15 11 9 15 11 17 18 22 23 21 17 6 18 19 32 29 27 27 26 32 34 37 41
8 4 4 4 4 7 3 2 4 3 3 5 4 4 2 3 13 12 5 6 15 13 8 6 9 15 20 23 24 25 27 27 22 22 17 25 27 29 26 24 29 36 38 39 37
6 6 6 5 5 6 2 1 6 1 4 5 9 5 8 11 11 15 19 15 11 9 7 3 6 11 19 21 23 25 26 23 24 21 23 23 28 24 28 31 33 38 38 37 37
8 6 4 2 3 4 3 3 5 7 9 9 11 13 16 16 16 18 25 30 23 17 14 5 3 3 11 14 20 18 7 5 11 12 14 16 26 25 20 22 32 39 39 36 37